Weather History for Adak, AK

Change the Weather History Date:

Thursday, November 7, 2013

  Actual Average Record
Temperature  
Mean Temperature 40 °F -  
Max Temperature 46 °F 43 °F 48 °F (1964)
Min Temperature 33 °F 33 °F 27 °F (1983)
Degree Days  
Heating Degree Days 26    
Moisture  
Dew Point 41 °F    
Average Humidity 84    
Maximum Humidity 93    
Minimum Humidity 67    
Precipitation  
Precipitation 0.02 in - - ()
Sea Level Pressure  
Sea Level Pressure 30.15 in    
Wind  
Wind Speed 32 mph (WSW)    
Max Wind Speed 43 mph    
Max Gust Speed 50 mph    
Visibility 6 miles    
Events      
Averages and records for this station are not official NWS values.
T = Trace of Precipitation, MM = Missing Value Source: NWS Daily Summary

Daily Weather History Graph

Daily Weather History Graph

Search for Another Location

Airport:

Trip Planner

Search our weather history database for the weather conditions in past years. The results will help you decide how hot, cold, wet, or windy it might be!

Date:

Astronomy

Nov. 07, 2013 Rise Set
Actual Time 8:52 AM HAST 6:07 PM HAST
Civil Twilight 8:16 AM HAST 6:43 PM HAST
Nautical Twilight 7:36 AM HAST 7:23 PM HAST
Astronomical Twilight 6:56 AM HAST 8:02 PM HAST
Moon 1:18 PM HAST (11/7) 10:31 PM HAST (11/7)
Length of Visible Light 10h 26m
Length of Day
9h 14m
Waxing Crescent, 24% of the Moon is Illuminated
Nov 7
Waxing Crescent
Nov 9
First Quarter
Nov 17
Full
Nov 25
Last Quarter
Dec 2
New

Hourly Weather History & Observations

Time (HAST) Temp. Windchill Dew Point Humidity Pressure Visibility Wind Dir Wind Speed Gust Speed Precip Events Conditions
12:16 AM 42.8 °F 31.9 °F 35.6 °F 76% 29.99 in 8.0 mi WSW 32.2 mph 43.7 mph N/A   Overcast
12:36 AM 42.8 °F 31.9 °F 35.6 °F 76% 30.00 in 9.0 mi WSW 32.2 mph 40.3 mph N/A   Overcast
12:56 AM 42.8 °F 31.6 °F 33.8 °F 70% 30.00 in 10.0 mi WSW 34.5 mph 41.4 mph N/A   Overcast
1:16 AM 42.8 °F 32.1 °F 35.6 °F 76% 30.01 in 8.0 mi WSW 31.1 mph 34.5 mph N/A   Overcast
1:36 AM 42.8 °F 31.9 °F 35.6 °F 76% 30.01 in 9.0 mi WSW 32.2 mph 40.3 mph N/A   Overcast
1:56 AM 42.8 °F 31.9 °F 35.6 °F 76% 30.01 in 8.0 mi WSW 32.2 mph 38.0 mph N/A   Overcast
2:16 AM 42.8 °F 32.3 °F 35.6 °F 76% 30.02 in 7.0 mi WSW 29.9 mph 39.1 mph N/A   Overcast
2:36 AM 42.8 °F 33.1 °F 35.6 °F 76% 30.03 in 9.0 mi WSW 25.3 mph - N/A   Overcast
2:56 AM 42.8 °F 32.5 °F 35.6 °F 76% 30.04 in 10.0 mi WSW 28.8 mph 33.4 mph N/A   Overcast
3:16 AM 42.8 °F 32.5 °F 35.6 °F 76% 30.04 in 7.0 mi WSW 28.8 mph 39.1 mph N/A   Overcast
3:36 AM 42.8 °F 32.3 °F 37.4 °F 81% 30.04 in 8.0 mi WSW 29.9 mph 36.8 mph N/A   Overcast
3:56 AM 42.8 °F 32.7 °F 37.4 °F 81% 30.05 in 8.0 mi WSW 27.6 mph 35.7 mph N/A   Overcast
4:16 AM 42.8 °F 31.9 °F 37.4 °F 81% 30.05 in 7.0 mi WSW 32.2 mph 38.0 mph N/A   Overcast
4:36 AM 42.8 °F 32.5 °F 37.4 °F 81% 30.05 in 9.0 mi WSW 28.8 mph 43.7 mph N/A   Overcast
4:56 AM 42.8 °F 32.7 °F 37.4 °F 81% 30.05 in 8.0 mi WSW 27.6 mph 35.7 mph N/A   Overcast
5:16 AM 42.8 °F 31.8 °F 37.4 °F 81% 30.05 in 8.0 mi WSW 33.4 mph 44.9 mph N/A   Overcast
5:36 AM 42.8 °F 31.4 °F 37.4 °F 81% 30.06 in 8.0 mi WSW 35.7 mph 43.7 mph N/A   Overcast
5:56 AM 44.6 °F 33.9 °F 37.4 °F 76% 30.06 in 8.0 mi WSW 35.7 mph 41.4 mph N/A   Overcast
6:16 AM 44.6 °F 34.1 °F 37.4 °F 76% 30.06 in 8.0 mi WSW 34.5 mph 48.3 mph N/A   Overcast
6:36 AM 44.6 °F 33.6 °F 39.2 °F 81% 30.06 in 8.0 mi WSW 38.0 mph 49.5 mph N/A   Overcast
6:56 AM 44.6 °F 34.2 °F 39.2 °F 81% 30.07 in 7.0 mi WSW 33.4 mph 43.7 mph N/A   Overcast
7:16 AM 44.6 °F 34.2 °F 39.2 °F 81% 30.08 in 7.0 mi WSW 33.4 mph 46.0 mph N/A   Overcast
7:36 AM 44.6 °F 34.4 °F 39.2 °F 81% 30.08 in 7.0 mi SW 32.2 mph 47.2 mph N/A   Overcast
7:56 AM 44.6 °F 33.5 °F 39.2 °F 81% 30.08 in 6.0 mi WSW 39.1 mph 44.9 mph N/A   Overcast
8:16 AM 44.6 °F 34.2 °F 39.2 °F 81% 30.09 in 6.0 mi WSW 33.4 mph 44.9 mph N/A   Overcast
8:36 AM 44.6 °F 33.9 °F 41.0 °F 87% 30.10 in 6.0 mi WSW 35.7 mph 42.6 mph N/A   Overcast
8:56 AM 44.6 °F 33.5 °F 41.0 °F 87% 30.09 in 7.0 mi SW 39.1 mph 44.9 mph N/A   Overcast
9:16 AM 44.6 °F 34.6 °F 41.0 °F 87% 30.11 in 5.0 mi WSW 31.1 mph 43.7 mph N/A   Overcast
9:36 AM 44.6 °F 34.1 °F 41.0 °F 87% 30.11 in 5.0 mi WSW 34.5 mph 42.6 mph N/A   Overcast
9:56 AM 44.6 °F 34.6 °F 41.0 °F 87% 30.12 in 5.0 mi WSW 31.1 mph 42.6 mph N/A   Overcast
10:16 AM 44.6 °F 34.6 °F 41.0 °F 87% 30.13 in 5.0 mi WSW 31.1 mph 44.9 mph N/A   Overcast
10:36 AM 44.6 °F 34.6 °F 41.0 °F 87% 30.13 in 4.0 mi WSW 31.1 mph 43.7 mph N/A   Overcast
10:56 AM 44.6 °F 33.8 °F 41.0 °F 87% 30.14 in 5.0 mi WSW 36.8 mph 47.2 mph N/A   Overcast
11:16 AM 44.6 °F 33.6 °F 41.0 °F 87% 30.14 in 5.0 mi WSW 38.0 mph 48.3 mph N/A   Overcast
11:36 AM 46.4 °F 36.4 °F 42.8 °F 87% 30.14 in 5.0 mi WSW 35.7 mph 47.2 mph N/A   Overcast
11:56 AM 46.4 °F 36.5 °F 42.8 °F 87% 30.15 in 5.0 mi WSW 34.5 mph 47.2 mph N/A   Overcast
12:16 PM 44.6 °F 34.6 °F 42.8 °F 93% 30.15 in 3.0 mi WSW 31.1 mph 41.4 mph N/A   Overcast
12:36 PM 46.4 °F 36.5 °F 42.8 °F 87% 30.16 in 5.0 mi WSW 34.5 mph 42.6 mph N/A   Overcast
12:56 PM 46.4 °F 36.1 °F 42.8 °F 87% 30.16 in 5.0 mi WSW 38.0 mph 44.9 mph N/A   Overcast
1:16 PM 46.4 °F 36.7 °F 42.8 °F 87% 30.17 in 5.0 mi WSW 33.4 mph 43.7 mph N/A   Overcast
1:36 PM 46.4 °F 36.3 °F 42.8 °F 87% 30.16 in 6.0 mi WSW 36.8 mph 44.9 mph N/A   Overcast
1:56 PM 46.4 °F 36.5 °F 42.8 °F 87% 30.17 in 4.0 mi WSW 34.5 mph 43.7 mph N/A   Overcast
2:16 PM 46.4 °F 36.7 °F 42.8 °F 87% 30.17 in 5.0 mi WSW 33.4 mph 43.7 mph N/A   Overcast
2:36 PM 46.4 °F 36.0 °F 42.8 °F 87% 30.17 in 4.0 mi WSW 39.1 mph 47.2 mph N/A   Overcast
2:56 PM 46.4 °F 36.3 °F 42.8 °F 87% 30.17 in 3.0 mi WSW 36.8 mph 46.0 mph N/A   Overcast
3:16 PM 46.4 °F 36.3 °F 42.8 °F 87% 30.18 in 4.0 mi WSW 36.8 mph 49.5 mph N/A   Overcast
3:36 PM 46.4 °F 35.6 °F 42.8 °F 87% 30.19 in 3.0 mi WSW 42.6 mph 48.3 mph N/A   Overcast
3:56 PM 46.4 °F 36.9 °F 42.8 °F 87% 30.19 in 2.5 mi WSW 32.2 mph 41.4 mph N/A   Overcast
4:16 PM 46.4 °F 36.1 °F 42.8 °F 87% 30.19 in 2.5 mi WSW 38.0 mph 44.9 mph N/A   Overcast
4:36 PM 46.4 °F 36.7 °F 42.8 °F 87% 30.20 in 4.0 mi WSW 33.4 mph 47.2 mph N/A   Overcast
4:56 PM 46.4 °F 37.0 °F 42.8 °F 87% 30.21 in 4.0 mi WSW 31.1 mph 42.6 mph N/A   Overcast
5:16 PM 46.4 °F 36.9 °F 42.8 °F 87% 30.21 in 2.5 mi WSW 32.2 mph 40.3 mph N/A   Overcast
5:36 PM 44.6 °F 34.7 °F 42.8 °F 93% 30.22 in 2.5 mi West 29.9 mph 40.3 mph N/A   Overcast
5:56 PM 44.6 °F 34.4 °F 42.8 °F 93% 30.23 in 2.0 mi WSW 32.2 mph 39.1 mph N/A   Overcast
6:16 PM 44.6 °F 33.8 °F 42.8 °F 93% 30.22 in 2.5 mi WSW 36.8 mph 41.4 mph N/A   Overcast
6:36 PM 44.6 °F 34.2 °F 42.8 °F 93% 30.23 in 4.0 mi WSW 33.4 mph 40.3 mph N/A   Overcast
6:56 PM 44.6 °F 34.7 °F 42.8 °F 93% 30.25 in 4.0 mi WSW 29.9 mph 36.8 mph N/A   Overcast
7:16 PM 44.6 °F 34.7 °F 42.8 °F 93% 30.25 in 3.0 mi WSW 29.9 mph 36.8 mph N/A   Overcast
7:36 PM 46.4 °F 38.3 °F 42.8 °F 87% 30.27 in 5.0 mi West 23.0 mph 35.7 mph N/A   Overcast
7:56 PM 46.4 °F 37.5 °F 42.8 °F 87% 30.28 in 5.0 mi WSW 27.6 mph 39.1 mph N/A   Overcast
8:16 PM 46.4 °F 37.7 °F 42.8 °F 87% 30.29 in 5.0 mi WSW 26.5 mph 29.9 mph N/A   Overcast
8:36 PM 46.4 °F 37.9 °F 42.8 °F 87% 30.30 in 4.0 mi West 25.3 mph 33.4 mph N/A   Overcast
8:56 PM 46.4 °F 37.7 °F 42.8 °F 87% 30.31 in 4.0 mi WSW 26.5 mph 34.5 mph N/A   Overcast
9:16 PM 46.4 °F 37.9 °F 42.8 °F 87% 30.32 in 4.0 mi WSW 25.3 mph 36.8 mph N/A   Overcast
9:36 PM 46.4 °F 37.9 °F 42.8 °F 87% 30.32 in 5.0 mi WSW 25.3 mph 31.1 mph N/A   Overcast
9:56 PM 46.4 °F 37.4 °F 42.8 °F 87% 30.32 in 5.0 mi WSW 28.8 mph 34.5 mph N/A   Overcast
10:16 PM 46.4 °F 37.7 °F 42.8 °F 87% 30.33 in 5.0 mi WSW 26.5 mph 35.7 mph N/A   Overcast
10:36 PM 46.4 °F 37.4 °F 42.8 °F 87% 30.32 in 5.0 mi WSW 28.8 mph 34.5 mph N/A   Overcast
10:56 PM 46.4 °F 37.4 °F 42.8 °F 87% 30.34 in 5.0 mi WSW 28.8 mph 38.0 mph N/A   Overcast
11:16 PM 46.4 °F 37.7 °F 42.8 °F 87% 30.34 in 5.0 mi WSW 26.5 mph 35.7 mph N/A   Overcast
11:36 PM 46.4 °F 38.3 °F 42.8 °F 87% 30.34 in 6.0 mi WSW 23.0 mph 29.9 mph N/A   Overcast
11:56 PM 46.4 °F 37.0 °F 42.8 °F 87% 30.33 in 7.0 mi WSW 31.1 mph 38.0 mph N/A   Overcast